STARLINK-30244 (57614 NORAD) Tracking and Keplerian Element Data

This shows tracking and keplerian element data for the satellite.

Feedback or suggestion? Click here.




ElementValue
Catalog57614
NameSTARLINK-30244
Epoch Orbit2475
Epoch Day13.09034976
Epoch Year2024
RAAN35.5331
Inclination43.003
Eccentricity8.18E-05
Argument of Perigee261.5177
Mean Anonmoly98.5572
Mean Motion15.02515054
Decay Rate2.384E-05
L11 57614U 23119N 24013.09034976 .00002384 00000+0 19159-3 0 9991
L22 57614 43.0030 35.5331 0000818 261.5177 98.5572 15.02515054 24753



Live tracking and technical data element details for STARLINK-30244 (NORAD 57614). STARLINK-30244 can be tracked NOW for your location showing map with azimuth and elevation plus other details from your city location.







IsCatalogInMostPopularTable: catalog: 57614, numindb: 29
Update: records affected: 1



GetName: 57614 STARLINK-30244

Hit Count: updated at: Thu, 29 Feb 2024 11:58:44 GMT